GW0848 Weather Reports


Display with metric or nautical units.
time (UTC)temp
F
wind
direction
speed
MPH
gust
MPH
rain 1hr
in
rain 24hr
in
rain mn
in
humidity
%
barometer
mb
20260506221531 58 195 4.0 10.0 0.01 0.12 0.12 94 1002.8
20260506220028 58 223 5.0 13.0 0.01 0.12 0.12 94 1003.0
20260506214523 58 158 4.0 10.0 0.01 0.12 0.12 94 1003.0
20260506213020 58 162 7.0 15.0 0.01 0.12 0.12 93 1003.1
20260506211516 59 167 4.0 13.0 0.00 0.11 0.11 92 1003.3
20260506210014 59 163 5.0 15.0 0.00 0.11 0.11 91 1003.4
20260506204509 59 191 5.0 16.0 0.01 0.11 0.11 91 1003.5
20260506203005 59 185 6.0 19.0 0.01 0.11 0.11 91 1003.6
20260506201503 59 226 5.0 19.0 0.02 0.11 0.11 91 1003.6
20260506200104 59 171 8.0 21.0 0.04 0.11 0.11 91 1003.6
20260506194614 59 201 8.0 17.0 0.04 0.10 0.10 91 1003.8
20260506193054 59 203 8.0 17.0 0.07 0.10 0.10 90 1003.8
20260506191551 60 191 9.0 21.0 0.08 0.09 0.09 89 1004.0
20260506190046 60 160 6.0 15.0 0.07 0.07 0.07 88 1004.1
20260506184542 61 154 5.0 14.0 0.06 0.06 0.06 87 1003.9
20260506183055 62 168 5.0 16.0 0.03 0.03 0.03 83 1004.2
20260506181537 63 214 11.0 20.0 0.01 0.01 0.01 80 1004.5
20260506180035 64 225 9.0 22.0 0.00 0.00 0.00 76 1004.5
20260506174527 66 214 12.0 31.0 0.00 0.00 0.00 71 1004.6
20260506173024 68 211 11.0 29.0 0.00 0.00 0.00 66 1004.7
20260506171526 70 192 15.0 29.0 0.00 0.00 0.00 62 1004.3
20260506170015 70 203 9.0 28.0 0.00 0.00 0.00 62 1004.4
20260506164512 71 205 9.0 18.0 0.00 0.00 0.00 60 1004.6
20260506163008 70 196 6.0 20.0 0.00 0.00 0.00 61 1004.6
20260506161503 70 195 9.0 20.0 0.00 0.00 0.00 61 1004.9
20260506160115 70 210 8.0 29.0 0.00 0.00 0.00 62 1005.1
20260506154604 69 200 11.0 24.0 0.00 0.00 0.00 63 1005.3
20260506153051 69 136 4.0 18.0 0.00 0.00 0.00 65 1005.6
20260506151548 68 245 11.0 21.0 0.00 0.00 0.00 64 1005.7
20260506150044 69 199 5.0 22.0 0.00 0.00 0.00 65 1005.8
20260506144553 68 214 8.0 17.0 0.00 0.00 0.00 67 1005.9
20260506143037 67 177 6.0 13.0 0.00 0.00 0.00 70 1006.2
20260506141533 66 205 5.0 15.0 0.00 0.00 0.00 72 1006.0
20260506140028 66 201 8.0 15.0 0.00 0.00 0.00 73 1005.9
20260506134525 65 215 5.0 17.0 0.00 0.00 0.00 74 1005.9
20260506133020 64 196 4.0 14.0 0.00 0.00 0.00 76 1006.0
20260506131515 63 198 7.0 16.0 0.00 0.00 0.00 78 1006.4
20260506130013 62 191 9.0 15.0 0.00 0.00 0.00 80 1006.6
20260506124506 61 222 7.0 17.0 0.00 0.00 0.00 80 1006.6
20260506123104 62 196 4.0 11.0 0.00 0.00 0.00 80 1006.5
20260506121600 60 203 6.0 15.0 0.00 0.00 0.00 82 1006.8
20260506120057 60 212 5.0 14.0 0.00 0.00 0.00 83 1006.8
20260506114555 59 229 3.0 10.0 0.00 0.00 0.00 84 1006.8
20260506113049 58 196 5.0 17.0 0.00 0.00 0.00 85 1007.1
20260506111544 58 154 7.0 14.0 0.00 0.00 0.00 86 1007.3
20260506110041 57 241 5.0 13.0 0.00 0.00 0.00 87 1007.2
20260506104539 57 209 7.0 12.0 0.00 0.00 0.00 86 1007.1
20260506103045 57 178 3.0 9.0 0.00 0.00 0.00 87 1007.0
20260506101530 57 176 4.0 11.0 0.00 0.00 0.00 87 1006.9
20260506100027 57 227 4.0 9.0 0.00 0.00 0.00 87 1007.0
20260506094522 57 219 3.0 9.0 0.00 0.00 0.00 87 1006.9
20260506093018 57 177 5.0 11.0 0.00 0.00 0.00 86 1006.9
20260506091516 57 198 4.0 11.0 0.00 0.00 0.00 86 1006.9
20260506090016 57 203 4.0 13.0 0.00 0.00 0.00 85 1006.9
20260506084505 57 166 6.0 15.0 0.00 0.00 0.00 84 1006.9
20260506083019 58 207 7.0 17.0 0.00 0.00 0.00 84 1007.0
20260506081516 58 193 5.0 13.0 0.00 0.00 0.00 83 1007.0
20260506073105 59 212 7.0 16.0 0.00 0.00 0.00 81 1006.9
20260506071601 59 166 5.0 14.0 0.00 0.00 0.00 80 1006.9
20260506061556 61 205 8.0 17.0 0.00 0.00 0.00 77 1006.6
20260506044521 62 207 10.0 19.0 0.00 0.00 0.00 71 1007.1
20260506043024 62 203 10.0 18.0 0.00 0.00 0.00 71 1007.2
20260506041507 61 246 9.0 19.0 0.00 0.00 0.00 71 1007.1
20260506040004 61 203 8.0 15.0 0.00 0.00 0.00 71 1007.2
20260506034607 61 214 8.0 17.0 0.00 0.00 0.00 71 1007.2
20260506033101 61 202 8.0 17.0 0.00 0.00 0.00 71 1007.1
20260506031556 61 197 6.0 16.0 0.00 0.00 0.00 70 1007.0
20260506030055 61 212 6.0 13.0 0.00 0.00 0.00 70 1006.9
20260506024556 61 200 5.0 16.0 0.00 0.00 0.00 69 1007.0
20260506023043 62 217 12.0 26.0 0.00 0.00 0.00 68 1007.0
20260506021555 62 212 11.0 19.0 0.00 0.00 0.00 67 1007.1
20260506020035 63 222 9.0 20.0 0.00 0.00 0.00 66 1006.9
20260506014532 63 203 13.0 22.0 0.00 0.00 0.00 65 1006.7
20260506013028 63 182 14.0 23.0 0.00 0.00 0.00 65 1006.4
20260506011524 64 221 6.0 15.0 0.00 0.00 0.00 64 1006.5
20260506010125 64 201 11.0 19.0 0.00 0.00 0.00 64 1006.1
20260506004508 66 190 9.0 20.0 0.00 0.00 0.00 62 1006.2
20260506003003 66 180 9.0 15.0 0.00 0.00 0.00 60 1006.1
20260506001604 67 235 10.0 20.0 0.00 0.00 0.00 58 1005.8
20260505234607 69 168 9.0 19.0 0.00 0.00 0.00 55 1005.4
20260505233053 70 204 12.0 23.0 0.00 0.00 0.00 54 1005.2
20260505231604 71 223 15.0 28.0 0.00 0.00 0.00 52 1005.0
20260505230047 72 201 8.0 25.0 0.00 0.00 0.00 52 1004.8
20260505224541 72 204 9.0 19.0 0.00 0.00 0.00 51 1004.6
20260505223037 73 203 11.0 18.0 0.00 0.00 0.00 50 1004.3